Wind_Speed
18 22 25 27 28 28 27 26 26 25 25 26 27 26 22 18 16 17 18 19 19 19 17 18 19 18 18 18 19 20 21 21 22 20 17 15 16 17 16 15 14 14
16 20 23 25 26 28 29 29 29 28 26 26 28 28 24 20 17 16 17 19 20 20 19 18 19 19 19 19 18 18 19 19 21 22 20 18 17 17 18 17 15 14
16 18 20 22 24 26 28 28 29 29 26 25 27 29 28 24 21 19 19 20 22 22 21 20 21 21 21 21 20 19 19 19 20 22 22 21 20 20 21 20 18 16
16 17 18 20 21 22 24 26 28 29 28 25 25 27 29 28 26 25 24 24 23 24 24 23 23 23 23 23 22 21 21 22 22 23 24 24 23 23 23 23 21 19
14 15 15 17 18 19 21 24 26 27 28 26 25 26 27 29 29 30 29 27 26 27 26 25 25 25 25 25 24 25 24 25 25 25 26 26 26 25 25 25 24 22
14 13 12 13 16 18 20 21 22 24 26 26 26 27 28 28 30 31 30 30 30 29 29 28 27 27 27 26 26 27 27 27 28 28 28 27 26 26 26 26 26 23
15 13 10 10 14 17 18 19 19 21 24 25 27 29 30 30 29 29 29 29 29 29 29 28 28 29 30 29 28 28 27 27 27 28 28 27 25 25 25 26 25 23
13 14 12 11 13 16 17 17 18 20 22 24 26 28 30 31 30 28 27 27 27 29 29 29 29 31 32 32 31 29 28 26 26 27 27 25 24 23 23 23 23 23
10 12 13 12 14 16 17 17 18 20 22 23 24 25 28 31 30 29 28 28 29 30 30 30 31 31 30 32 32 31 29 28 27 27 26 25 24 23 22 21 21 22
10 10 12 14 15 17 18 18 19 20 22 23 22 22 25 28 30 30 29 29 30 31 31 31 32 32 30 31 33 33 31 30 29 28 27 26 25 23 22 21 21 21
13 11 13 14 15 17 18 19 20 21 22 22 22 22 24 26 28 30 30 30 30 30 31 31 31 32 32 31 32 34 32 30 29 28 27 27 26 25 23 22 21 21
17 14 13 14 15 16 18 19 20 21 22 22 22 23 24 26 28 29 30 30 30 29 30 31 31 32 33 31 31 32 32 31 30 28 27 27 27 27 26 24 23 22
18 16 14 14 15 16 17 19 21 22 22 22 22 23 24 27 29 30 30 30 31 30 30 30 29 30 33 32 30 30 30 30 30 28 27 27 28 28 28 27 26 24
19 16 14 13 15 16 17 18 20 21 22 22 23 23 23 25 27 30 31 31 31 31 31 30 28 28 30 31 30 29 29 29 29 29 29 29 29 30 29 29 28 27
19 16 14 13 14 15 17 18 19 20 22 23 23 24 23 24 25 27 30 31 32 32 32 32 30 29 30 30 29 28 30 29 29 30 32 31 30 31 31 31 30 29
19 17 14 13 13 14 15 16 17 18 20 23 24 24 24 24 24 25 27 29 31 31 32 33 33 32 31 30 29 29 30 30 30 31 33 33 33 32 32 32 31 30
18 17 15 14 13 13 14 15 16 16 18 21 24 25 25 25 25 25 25 27 29 29 30 32 32 31 30 29 30 31 32 33 33 33 33 33 34 34 34 34 33 32
18 17 16 15 14 13 13 14 15 16 17 18 20 21 22 22 24 26 26 26 27 28 29 29 29 29 29 29 30 31 33 34 34 34 34 35 35 35 35 35 34 33
18 18 17 16 17 16 15 14 14 15 16 16 16 16 18 20 22 24 25 25 26 26 27 27 28 27 27 28 29 31 33 35 34 34 36 37 38 38 36 35 35 34
18 18 17 17 18 18 17 16 15 16 16 16 16 15 17 19 20 21 21 21 22 23 24 25 26 26 26 27 28 29 32 34 34 35 35 36 38 39 39 38 36 35
18 18 17 16 16 16 16 16 17 17 16 16 16 16 16 16 17 17 17 17 17 18 20 22 23 24 25 26 27 28 30 32 33 34 35 35 36 37 39 40 38 37
19 19 18 17 17 16 15 15 16 17 16 15 14 14 15 15 15 15 16 16 16 17 18 19 19 19 21 23 25 26 27 30 31 32 33 34 33 34 36 37 37 37
20 20 20 19 19 18 16 14 15 16 15 14 14 14 14 14 15 14 14 14 15 17 17 17 15 15 17 18 20 23 25 27 29 31 33 33 32 32 32 33 33 33
20 20 20 19 19 18 17 15 14 15 14 14 14 14 13 13 13 13 13 14 15 15 15 15 14 14 15 17 17 19 21 23 26 28 30 31 31 30 30 30 30 30
19 19 18 19 18 18 17 16 15 15 14 13 13 14 13 12 13 13 14 14 15 15 15 15 15 15 15 17 17 18 20 22 23 25 27 28 29 28 28 29 29 29
18 17 17 18 18 17 16 15 15 15 14 14 14 15 15 15 15 15 14 14 15 16 17 16 17 17 16 16 17 19 20 21 22 24 26 27 27 27 28 27 27 28
Wind_Direction
264 255 250 247 242 237 235 234 231 227 223 220 222 230 239 245 246 246 251 255 253 252 255 254 250 249 248 247 242 234 231 232 230 232 241 243 237 239 247 254 253 250
269 260 257 255 250 244 241 238 235 230 224 218 217 223 230 238 244 243 245 250 249 248 251 253 253 253 253 253 245 232 225 226 229 234 241 242 238 240 248 256 257 256
276 270 266 261 254 248 242 241 239 236 233 226 220 220 222 228 236 240 238 236 237 241 245 249 252 253 255 255 249 236 227 227 231 237 242 244 245 246 251 256 259 262
282 278 275 268 257 247 240 240 241 239 238 236 229 224 224 225 230 236 239 239 238 237 238 244 250 252 253 252 251 245 237 236 238 240 244 246 247 250 253 255 259 262
293 285 278 268 253 241 237 241 243 241 240 240 237 232 231 232 232 235 240 244 246 244 241 241 245 249 250 248 250 251 245 241 240 242 245 246 248 250 252 254 256 258
303 291 277 262 247 238 237 241 244 241 238 240 240 237 238 240 239 237 238 241 245 247 245 243 242 244 247 248 250 251 247 242 241 243 246 248 250 250 250 251 253 254
306 297 282 260 249 244 242 243 244 241 238 238 239 237 237 239 241 241 240 242 246 247 246 245 243 242 244 247 247 247 245 243 244 246 249 251 251 249 247 248 250 251
302 295 285 264 252 250 250 248 244 239 237 238 239 238 235 234 238 241 242 244 248 249 247 246 244 244 247 247 244 244 245 246 247 248 249 250 250 247 244 244 247 249
294 289 284 271 257 252 252 252 247 240 237 238 242 243 236 231 233 238 241 243 246 247 246 243 242 246 252 249 243 243 246 246 247 248 249 250 250 249 245 243 246 249
296 282 276 272 265 259 255 252 248 244 241 241 242 243 239 234 232 234 238 239 241 243 243 243 242 245 251 251 245 245 246 245 247 250 250 252 252 252 250 247 247 248
305 286 272 267 267 265 262 257 250 246 245 243 240 240 242 239 236 235 236 237 239 241 242 244 245 244 246 248 247 247 247 245 249 252 251 253 254 255 254 251 249 247
314 295 277 268 264 262 260 258 255 252 249 247 244 243 244 244 240 237 236 237 239 240 240 243 247 247 247 245 246 249 250 247 248 250 251 253 255 256 257 257 254 251
322 304 285 272 266 263 259 255 254 254 252 248 245 244 244 243 241 237 236 236 237 237 238 240 245 248 248 246 246 249 248 243 243 247 249 251 253 255 257 259 258 257
328 313 295 278 267 264 264 259 251 250 251 249 245 245 245 244 242 240 238 237 237 238 238 239 240 242 244 247 250 248 242 237 237 243 248 249 250 253 256 258 260 260
333 320 304 291 279 272 271 269 259 251 251 250 247 245 246 247 246 243 240 239 238 238 239 240 240 239 239 243 248 246 241 237 236 242 248 249 248 251 255 257 259 260
335 327 312 300 293 284 278 277 272 263 259 258 255 251 249 248 248 245 242 241 241 240 240 241 241 240 239 241 244 242 240 239 236 238 244 248 249 251 254 256 259 260
335 332 320 307 298 291 286 282 277 272 267 264 262 260 256 253 251 249 245 242 243 243 242 242 242 242 241 243 244 242 239 237 236 237 239 243 247 250 253 255 257 259
331 331 325 315 306 298 292 288 281 275 269 266 264 263 262 259 256 254 250 247 246 245 244 245 245 246 245 245 245 242 239 237 238 239 239 240 244 247 251 254 256 258
329 330 328 321 314 304 294 293 292 285 279 274 268 265 264 261 258 255 253 251 250 249 248 247 246 247 248 247 246 243 240 239 239 241 242 243 244 244 245 248 251 255
329 330 329 326 321 313 304 301 300 296 291 286 279 271 265 262 259 257 255 254 253 251 249 247 245 245 246 246 245 242 241 242 242 242 244 245 246 245 243 242 243 247
328 327 327 327 325 319 311 305 300 293 289 290 288 281 274 267 263 261 261 261 261 258 254 250 247 247 247 246 245 243 243 243 243 243 244 245 246 245 242 241 243 244
325 325 327 327 325 320 311 307 301 291 282 282 283 280 277 275 271 268 269 268 266 264 261 257 253 250 247 244 243 243 243 244 244 245 245 246 246 245 243 244 246 246
320 324 328 328 328 325 316 308 302 294 286 283 281 276 273 274 272 271 272 269 263 258 256 255 254 250 246 242 240 239 241 243 245 246 247 248 247 246 246 246 246 246
317 321 327 328 328 327 322 313 303 294 286 285 284 277 269 265 262 262 265 265 261 258 258 258 256 251 249 248 245 242 241 242 243 245 246 247 246 246 246 246 246 246
314 319 324 326 325 325 324 318 308 295 284 280 280 276 270 266 264 262 262 263 263 263 263 261 258 254 254 256 255 253 249 247 245 245 246 245 244 244 244 244 244 245
312 316 322 324 322 321 321 317 309 297 285 277 274 273 270 269 268 267 266 266 266 266 263 261 261 261 260 260 260 258 253 248 246 246 247 246 245 243 242 241 240 241
Height
1514 1515 1517 1519 1519 1519 1520 1521 1522 1522 1523 1525 1527 1530 1532 1534 1535 1537 1538 1539 1539 1540 1541 1542 1542 1543 1544 1545 1545 1545 1546 1546 1547 1547 1548 1548 1549 1549 1550 1550 1550 1550
1512 1512 1514 1516 1517 1518 1519 1519 1520 1520 1521 1522 1524 1526 1528 1531 1532 1534 1535 1536 1537 1538 1539 1540 1540 1541 1542 1543 1544 1544 1544 1545 1545 1545 1546 1546 1546 1547 1547 1548 1548 1548
1509 1509 1510 1511 1513 1515 1517 1518 1519 1520 1522 1522 1522 1523 1525 1527 1530 1531 1531 1532 1533 1535 1536 1538 1539 1539 1540 1541 1542 1542 1543 1543 1543 1543 1544 1544 1544 1545 1545 1546 1546 1546
1507 1507 1507 1508 1509 1511 1513 1515 1517 1519 1520 1521 1522 1522 1523 1525 1526 1527 1528 1529 1531 1532 1533 1535 1536 1538 1538 1539 1540 1541 1541 1541 1542 1542 1542 1542 1542 1542 1543 1543 1544 1544
1505 1504 1504 1505 1505 1507 1510 1512 1514 1516 1517 1519 1520 1521 1522 1522 1523 1524 1525 1528 1529 1530 1531 1532 1534 1536 1537 1537 1538 1538 1539 1539 1540 1540 1540 1540 1540 1540 1541 1541 1541 1542
1504 1503 1502 1503 1504 1505 1507 1509 1511 1512 1513 1514 1516 1517 1519 1520 1520 1521 1523 1525 1526 1528 1530 1531 1532 1533 1534 1535 1536 1536 1536 1537 1537 1538 1538 1538 1538 1538 1538 1539 1539 1539
1503 1501 1501 1502 1503 1503 1504 1505 1507 1508 1508 1510 1511 1512 1514 1516 1517 1519 1521 1522 1523 1525 1527 1529 1529 1530 1531 1533 1534 1534 1534 1534 1535 1535 1536 1536 1536 1536 1536 1536 1536 1536
1501 1500 1500 1500 1501 1502 1502 1503 1504 1504 1505 1506 1506 1507 1509 1511 1514 1516 1517 1519 1520 1522 1524 1526 1527 1527 1529 1530 1531 1532 1532 1532 1533 1533 1533 1533 1533 1533 1533 1533 1533 1533
1499 1498 1498 1498 1499 1500 1500 1501 1501 1501 1502 1502 1503 1505 1506 1508 1510 1512 1514 1515 1516 1518 1520 1523 1524 1525 1526 1528 1528 1528 1530 1530 1530 1531 1531 1531 1531 1530 1531 1531 1531 1531
1497 1496 1496 1496 1497 1497 1498 1499 1499 1499 1499 1500 1501 1502 1503 1505 1506 1508 1510 1511 1512 1514 1516 1518 1520 1521 1523 1524 1525 1525 1527 1528 1528 1528 1528 1528 1528 1528 1529 1529 1529 1528
1496 1495 1495 1494 1494 1495 1495 1496 1497 1497 1497 1498 1498 1499 1501 1502 1503 1504 1505 1507 1508 1509 1511 1513 1516 1518 1518 1520 1522 1524 1524 1526 1526 1526 1526 1526 1526 1526 1526 1527 1527 1527
1494 1493 1493 1492 1492 1492 1492 1493 1494 1494 1495 1495 1496 1497 1498 1499 1500 1500 1502 1503 1504 1506 1508 1509 1511 1513 1513 1514 1517 1520 1521 1522 1523 1523 1523 1523 1523 1523 1524 1524 1524 1525
1493 1492 1491 1490 1490 1490 1490 1490 1490 1491 1492 1493 1494 1494 1494 1496 1497 1498 1499 1500 1501 1502 1503 1505 1506 1508 1510 1510 1512 1514 1516 1518 1520 1521 1520 1520 1520 1520 1521 1521 1522 1522
1492 1491 1489 1488 1488 1487 1488 1487 1488 1489 1489 1490 1491 1491 1492 1493 1494 1495 1496 1496 1498 1498 1499 1500 1501 1504 1506 1508 1509 1509 1511 1513 1515 1516 1517 1516 1517 1517 1518 1518 1519 1520
1491 1490 1488 1487 1486 1486 1485 1485 1485 1486 1487 1488 1488 1489 1490 1491 1491 1492 1492 1493 1494 1495 1496 1497 1498 1499 1501 1504 1505 1505 1507 1509 1510 1512 1513 1513 1513 1513 1514 1515 1516 1517
1491 1489 1487 1486 1485 1484 1484 1483 1483 1484 1484 1485 1486 1486 1487 1487 1488 1489 1489 1490 1490 1491 1493 1494 1494 1496 1497 1499 1501 1502 1503 1505 1505 1506 1507 1508 1509 1509 1510 1511 1512 1513
1490 1488 1487 1485 1484 1483 1482 1482 1481 1481 1481 1482 1483 1483 1484 1484 1485 1485 1485 1486 1487 1488 1489 1490 1491 1492 1494 1496 1497 1498 1500 1500 1501 1502 1503 1504 1505 1505 1506 1507 1508 1510
1489 1487 1485 1484 1483 1482 1481 1480 1480 1480 1479 1480 1480 1481 1481 1481 1481 1481 1482 1483 1484 1485 1486 1486 1487 1489 1490 1492 1493 1494 1495 1496 1497 1498 1499 1500 1501 1501 1503 1504 1505 1507
1487 1485 1484 1483 1482 1480 1480 1479 1479 1478 1478 1478 1478 1478 1478 1478 1478 1478 1479 1480 1481 1482 1483 1483 1484 1485 1486 1487 1488 1489 1490 1491 1492 1494 1495 1496 1497 1498 1499 1500 1502 1504
1485 1484 1482 1482 1480 1479 1478 1478 1477 1477 1476 1476 1475 1475 1475 1475 1475 1476 1476 1477 1478 1479 1480 1480 1481 1482 1483 1484 1485 1485 1486 1487 1488 1490 1491 1491 1492 1493 1494 1495 1496 1499
1483 1482 1481 1480 1478 1477 1476 1476 1476 1475 1474 1473 1473 1473 1473 1473 1473 1473 1473 1474 1475 1476 1477 1477 1478 1479 1480 1480 1481 1482 1483 1484 1485 1486 1486 1486 1487 1488 1490 1491 1492 1494
1482 1480 1479 1477 1476 1475 1474 1474 1473 1472 1471 1471 1470 1470 1471 1471 1471 1471 1471 1472 1473 1473 1474 1474 1475 1476 1476 1477 1478 1479 1479 1480 1481 1481 1481 1482 1483 1484 1486 1487 1489 1490
1480 1478 1477 1475 1474 1473 1472 1471 1471 1470 1469 1469 1468 1468 1468 1468 1468 1468 1469 1469 1470 1471 1471 1471 1472 1472 1473 1474 1474 1475 1475 1476 1476 1477 1477 1477 1478 1480 1481 1483 1485 1487
1479 1477 1475 1474 1473 1472 1470 1470 1469 1468 1467 1467 1467 1466 1465 1465 1465 1465 1466 1467 1467 1468 1468 1468 1469 1469 1470 1470 1471 1472 1472 1472 1473 1473 1473 1474 1475 1476 1477 1479 1480 1482
1477 1476 1474 1473 1471 1470 1469 1468 1467 1466 1466 1465 1465 1464 1464 1463 1463 1462 1463 1464 1465 1466 1466 1466 1466 1466 1467 1468 1468 1468 1469 1469 1469 1469 1469 1470 1472 1473 1474 1475 1476 1478
1475 1474 1473 1471 1470 1468 1467 1466 1465 1464 1464 1463 1463 1462 1461 1461 1461 1460 1460 1461 1462 1463 1464 1464 1464 1464 1465 1465 1465 1465 1465 1465 1465 1465 1465 1466 1467 1469 1470 1471 1472 1474